This is the latest recevied weather packets stored in our database for station/object OK3MS-5. If no packets are shown the sender has not sent any weather packets the latest 10 day(s).
| Time | Temp. | Humidity | Pressure | Rain* | Wind** | Luminosity | Snow |
|---|---|---|---|---|---|---|---|
| 1777709702 | 17.78° C | 43% | 1023 hPa | 0 mm | - | 558 W/m² | - |
| 1777709402 | 17.78° C | 46% | 1023.2 hPa | 0 mm | - | 547 W/m² | - |
| 1777709104 | 17.22° C | 47% | 1023.3 hPa | 0 mm | - | 535 W/m² | - |
| 1777708804 | 16.67° C | 50% | 1023.4 hPa | 0 mm | - | 519 W/m² | - |
| 1777708503 | 16.11° C | 50% | 1023.6 hPa | 0 mm | - | 505 W/m² | - |
| 1777708202 | 15.56° C | 53% | 1023.7 hPa | 0 mm | - | 490 W/m² | - |
| 1777707903 | 16.11° C | 53% | 1023.7 hPa | 0 mm | - | 474 W/m² | - |
| 1777707603 | 15.56° C | 53% | 1023.8 hPa | 0 mm | - | 460 W/m² | - |
| 1777707302 | 15° C | 55% | 1024 hPa | 0 mm | - | 445 W/m² | - |
| 1777707003 | 15° C | 56% | 1024.1 hPa | 0 mm | - | 432 W/m² | - |
| 1777706703 | 14.44° C | 55% | 1024.2 hPa | 0 mm | - | 415 W/m² | - |
| 1777706402 | 13.89° C | 58% | 1024.3 hPa | 0 mm | - | 400 W/m² | - |
| 1777706102 | 13.89° C | 59% | 1024.4 hPa | 0 mm | - | 387 W/m² | - |
| 1777705802 | 13.33° C | 62% | 1024.5 hPa | 0 mm | - | 372 W/m² | - |
| 1777705504 | 12.78° C | 63% | 1024.5 hPa | 0 mm | - | 356 W/m² | - |
| 1777705202 | 12.78° C | 63% | 1024.5 hPa | 0 mm | - | 340 W/m² | - |
| 1777704904 | 12.78° C | 63% | 1024.7 hPa | 0 mm | - | 324 W/m² | - |
| 1777704602 | 12.22° C | 63% | 1024.8 hPa | 0 mm | - | 305 W/m² | - |
| 1777704302 | 12.22° C | 65% | 1024.7 hPa | 0 mm | - | 290 W/m² | - |
| 1777704002 | 11.67° C | 65% | 1024.9 hPa | 0 mm | - | 273 W/m² | - |
| 1777703703 | 11.67° C | 66% | 1024.9 hPa | 0 mm | - | 258 W/m² | - |
| 1777703403 | 11.11° C | 66% | 1025 hPa | 0 mm | - | 245 W/m² | - |
| 1777703102 | 11.11° C | 67% | 1025.1 hPa | 0 mm | - | 220 W/m² | - |
| 1777702802 | 11.11° C | 68% | 1025.1 hPa | 0 mm | - | 52 W/m² | - |
| 1777702505 | 11.11° C | 66% | 1025.1 hPa | 0 mm | - | 50 W/m² | - |
* Rain latest hour (hover to see other rain measurements)
** Current wind speed in m/s (hover to see current wind gust speed)